Lapse_Rate
-1.5 -1.8 -2.0 -2.2 -2.3 -2.6 -2.7 -2.9 -3.1 -3.4 -3.7 -4.1 -4.5 -5.0 -5.2 -5.9 -6.0 -3.4 1.8 3.8 1.6 1.9 2.6 2.4 4.1 2.9 1.9 3.8 6.5 5.8 6.5 6.5 6.5 6.5 6.5 5.0 6.5 7.0 7.6 7.1 7.5 7.6 7.3 7.4 7.0
-1.5 -1.7 -2.1 -2.4 -2.7 -2.9 -3.2 -3.5 -3.9 -3.9 -4.2 -4.6 -4.8 -5.0 -5.3 -6.0 -4.9 -1.2 2.5 1.6 0.9 1.5 2.4 3.0 3.9 3.7 3.6 5.3 6.2 6.2 6.6 6.6 6.6 6.5 6.5 6.7 6.5 6.7 6.9 6.7 6.9 7.1 7.6 8.0 7.2
-1.6 -1.8 -2.2 -2.5 -2.7 -3.2 -3.7 -4.3 -4.4 -4.3 -4.6 -4.8 -4.9 -4.9 -5.3 -6.2 1.1 3.6 0.7 0.8 1.6 1.8 1.9 2.9 3.4 4.3 6.4 5.6 6.3 6.4 6.5 6.5 6.7 6.8 6.7 6.5 5.8 7.3 6.6 6.6 6.7 6.5 6.6 7.0 6.8
-1.7 -2.0 -2.4 -2.5 -3.0 -3.9 -4.4 -4.4 -4.4 -4.6 -4.8 -5.0 -4.8 -4.6 -5.2 -4.2 6.5 4.6 -0.4 -0.6 1.5 2.0 4.7 4.4 4.6 5.6 6.6 6.4 7.0 6.5 6.9 6.9 6.8 7.3 7.0 6.3 5.1 6.7 6.7 6.5 7.1 6.8 6.3 6.6 7.4
-2.0 -2.3 -2.7 -3.2 -3.7 -4.0 -4.4 -4.6 -4.9 -5.1 -5.0 -4.8 -4.3 -4.2 -3.3 3.3 1.8 1.6 -0.1 -0.6 -0.4 1.1 3.1 6.0 5.7 6.6 6.5 6.5 6.8 6.5 6.6 6.6 7.0 7.1 5.9 6.1 6.5 6.5 6.5 7.4 7.4 7.0 6.3 5.6 6.9
-2.3 -2.7 -3.2 -3.5 -3.9 -4.0 -4.4 -4.9 -5.2 -5.3 -5.0 -4.7 -4.0 -4.3 0.8 5.9 4.5 0.6 0.8 0.3 1.9 2.6 3.3 3.6 4.6 5.0 5.4 6.5 6.5 6.4 6.7 6.9 6.8 6.6 6.8 6.5 6.5 6.0 6.7 7.4 7.2 6.7 5.1 5.0 5.2
-2.5 -3.1 -3.1 -3.5 -3.8 -4.1 -4.8 -5.4 -5.6 -5.4 -5.0 -4.6 -3.4 -1.4 1.8 1.3 5.1 1.6 1.9 1.5 2.4 2.7 4.0 4.7 5.2 6.4 5.3 6.5 6.0 6.5 6.5 6.6 6.6 6.6 6.5 6.3 6.5 6.5 5.7 7.3 6.8 6.2 5.3 5.6 5.2
-2.7 -2.8 -2.9 -3.3 -3.4 -4.2 -5.4 -6.0 -6.0 -5.2 -4.8 -4.4 -2.8 0.1 1.5 2.4 2.7 3.4 3.4 4.2 3.9 3.4 3.9 4.3 4.6 6.1 5.4 5.4 6.1 6.5 6.5 6.5 6.5 6.5 6.5 6.4 6.6 6.5 5.2 6.7 6.5 6.1 6.2 6.2 5.2
-2.5 -2.8 -3.1 -3.4 -3.8 -4.7 -6.4 -6.8 -5.9 -4.7 -3.9 -3.3 -0.7 2.7 2.3 2.8 5.8 4.7 3.9 6.3 5.0 4.5 4.3 6.9 6.6 5.1 4.8 6.5 6.5 6.4 6.5 6.5 6.5 6.5 6.5 6.5 6.5 6.4 5.2 5.7 6.4 6.3 6.0 6.3 5.7
-2.5 -3.0 -3.4 -3.7 -4.2 -5.5 -7.2 -6.6 -5.2 -3.7 -2.5 0.3 3.5 3.9 2.6 5.0 5.4 6.2 5.0 6.1 6.2 5.8 6.1 6.4 3.6 6.5 6.5 6.5 6.5 6.5 6.5 6.5 6.5 6.5 6.5 6.5 6.5 6.5 5.2 5.7 6.4 6.4 5.8 5.5 5.4
-2.7 -3.2 -3.7 -4.2 -4.9 -6.0 -7.6 -4.5 2.1 3.4 4.0 4.8 4.0 3.5 5.4 5.8 6.1 6.5 6.7 6.9 6.7 5.0 6.5 4.8 6.5 6.6 6.5 6.5 6.5 6.5 6.5 6.5 6.5 6.5 6.5 6.5 6.5 6.5 6.3 5.8 5.8 5.7 5.7 5.3 5.6
-2.8 -3.4 -4.1 -5.0 -5.6 -6.2 -6.9 1.3 3.7 6.5 4.7 4.7 4.6 5.1 4.8 5.8 6.6 6.3 5.2 5.8 6.0 6.4 6.3 6.5 6.5 6.5 6.5 6.5 6.6 6.4 6.5 6.5 6.6 6.5 6.5 6.5 6.5 6.5 6.5 6.4 6.0 5.2 6.1 5.7 4.1
-2.8 -3.4 -4.5 -5.3 -5.9 -4.7 -0.6 2.8 3.1 4.1 4.7 4.8 4.7 4.7 4.1 4.4 5.5 4.9 4.7 4.4 6.2 6.5 6.5 6.6 6.5 6.5 6.5 6.5 6.5 6.5 6.5 6.5 6.4 6.4 6.6 6.5 6.5 6.5 6.5 6.1 5.9 5.4 5.8 5.8 4.6
-3.1 -3.5 -4.3 -6.1 -1.9 -3.7 0.8 2.9 1.5 3.7 6.5 6.5 5.8 5.1 5.9 5.7 5.8 5.2 4.4 5.2 6.3 6.5 6.6 6.5 6.2 6.5 6.5 6.5 6.5 6.5 6.5 6.5 6.5 6.5 6.5 6.5 6.5 6.5 6.5 6.5 6.5 6.1 5.0 4.2 4.5
-2.9 -3.6 -4.3 -6.4 -6.1 -2.1 4.2 0.5 2.0 2.7 6.5 6.4 6.1 5.2 4.0 5.1 5.7 6.4 5.0 5.3 6.5 6.5 6.6 6.5 6.5 6.5 6.5 6.5 6.5 6.5 6.5 6.6 6.5 6.5 6.5 6.5 6.5 6.6 6.5 6.5 6.5 6.2 5.7 4.2 3.0
-3.3 -3.9 -4.9 -4.0 -6.2 -3.8 -2.0 -0.6 2.4 6.4 6.5 6.4 6.2 6.4 6.4 5.9 5.7 5.5 5.9 5.6 4.3 6.6 6.5 6.5 5.0 6.5 6.6 6.5 6.5 6.4 6.5 6.5 6.5 6.5 6.4 6.5 6.5 6.5 6.5 6.4 6.5 6.4 6.2 5.5 3.6
-4.2 -5.1 -6.0 -4.0 -0.0 -0.4 -0.7 1.8 6.5 6.5 6.5 6.5 6.5 6.5 6.5 6.5 6.5 6.5 6.5 6.4 6.5 6.5 6.5 6.5 6.4 6.6 6.4 6.5 6.5 6.4 6.5 6.5 6.5 6.5 6.5 6.5 6.6 6.5 6.5 6.5 6.5 6.5 6.4 6.3 5.0
-5.6 -6.6 -6.4 -5.2 -5.0 -1.7 0.4 6.0 6.5 6.5 6.5 6.5 6.5 6.5 6.5 6.4 6.5 6.5 6.5 6.5 6.4 6.5 6.4 6.5 6.5 6.5 6.5 6.5 6.5 6.5 6.5 6.5 6.5 6.5 6.5 6.5 6.5 6.5 6.5 5.6 5.8 6.3 6.5 6.7 6.2
-7.2 -6.4 -4.7 -3.7 -5.1 -2.0 2.4 6.5 6.6 6.5 6.5 6.5 6.5 6.6 6.5 6.5 6.4 6.5 6.5 6.5 6.5 6.5 6.5 6.5 6.5 6.6 6.5 6.5 6.5 6.5 6.5 6.5 6.5 6.5 6.5 6.5 6.5 6.5 6.5 6.5 5.9 5.6 6.2 6.5 6.5
-5.9 -2.1 0.1 1.3 -1.4 0.7 5.5 6.5 6.5 6.5 6.5 6.5 6.5 6.5 6.5 6.5 6.5 6.5 6.5 6.5 6.5 6.4 6.0 6.5 6.5 6.5 6.5 6.2 6.5 6.5 6.5 6.5 6.5 6.4 6.4 6.5 6.5 6.5 6.5 6.5 6.5 6.5 6.1 6.2 6.1
-2.9 2.1 2.8 0.8 1.3 1.7 6.5 6.5 6.5 5.4 6.0 6.5 6.5 6.5 6.5 6.5 6.5 6.5 6.5 6.5 6.5 6.5 6.2 6.5 6.5 6.5 6.5 6.5 6.5 6.5 6.5 6.5 6.6 6.5 6.5 6.5 6.5 6.5 6.5 6.5 6.5 6.3 5.8 6.1 6.0
-1.6 6.3 3.7 2.7 4.2 4.1 6.4 6.4 4.4 6.1 4.2 6.3 6.5 6.5 6.5 6.5 6.5 6.5 6.5 6.4 5.9 6.2 6.5 6.5 6.5 6.5 6.5 6.5 6.5 6.5 6.5 6.5 6.5 6.5 6.5 6.5 6.5 6.5 6.5 6.5 6.2 6.1 4.2 5.8 5.5
0.3 1.2 3.0 3.4 6.4 6.4 5.8 6.5 6.2 6.5 6.5 6.5 6.5 6.5 6.5 6.5 6.5 6.5 6.5 6.2 6.4 6.4 6.5 6.5 6.5 6.5 6.5 6.5 6.5 6.5 6.5 6.5 6.5 6.5 6.5 6.5 6.5 6.5 6.3 6.3 5.9 4.3 3.7 3.3 2.7
0.8 6.5 1.6 1.1 1.4 6.4 6.5 6.5 6.5 5.5 6.0 6.0 6.5 5.8 6.5 6.5 6.5 6.5 6.5 6.5 6.3 6.2 2.6 4.4 6.5 6.5 6.5 6.5 6.6 6.5 6.5 6.5 6.5 6.5 6.5 6.5 6.5 6.5 6.5 6.5 5.7 3.7 2.7 2.7 2.0
1.7 5.3 5.5 6.5 5.5 6.1 6.4 6.5 6.5 6.5 5.8 5.4 6.5 6.5 6.5 6.5 6.5 6.5 6.5 6.5 6.3 4.3 5.6 6.5 6.5 6.5 6.5 6.5 6.5 6.6 6.5 6.5 6.5 6.5 6.5 6.5 6.5 6.5 6.5 6.5 5.3 3.6 2.8 3.0 3.3
3.4 4.0 3.3 3.9 3.5 6.3 6.5 6.5 6.5 6.5 6.5 6.5 6.5 6.5 6.5 6.5 6.5 6.5 6.5 6.5 6.6 6.5 6.5 6.5 6.5 6.5 6.5 6.5 6.5 6.5 6.5 6.5 6.5 6.5 6.6 6.5 6.5 6.5 5.5 3.5 4.1 4.0 3.7 3.6 3.7
2.3 3.2 3.5 3.4 5.6 6.5 6.5 6.5 6.5 6.2 6.1 6.4 6.4 6.5 6.6 6.5 5.6 4.5 3.9 3.8 5.2 6.5 6.5 6.6 6.5 6.5 6.5 6.6 6.6 6.5 6.5 6.5 6.5 6.5 6.5 6.5 6.5 6.5 6.6 6.4 5.3 4.0 3.7 4.0 3.9
Wind_Speed
20 20 21 22 23 23 24 24 23 23 23 23 21 19 16 15 18 3 5 11 13 26 15 10 9 6 7 5 4 1 5 1 4 4 5 4 18 10 13 19 19 6 15 23 23
20 21 22 23 23 24 24 24 24 24 24 23 20 19 15 13 2 5 7 28 40 33 16 17 8 6 4 4 5 5 3 6 1 3 5 13 13 16 10 19 10 14 14 21 25
22 22 23 24 25 25 24 23 24 25 25 23 20 18 14 10 3 5 16 27 39 33 16 14 15 7 5 2 5 1 3 6 14 12 13 12 16 11 23 12 22 21 17 23 25
22 22 23 24 25 25 25 25 25 25 24 22 19 17 13 2 5 2 14 23 38 19 8 13 12 3 8 9 12 8 14 18 10 22 15 9 17 8 12 12 22 20 14 19 22
22 22 23 24 24 25 25 26 26 25 24 21 18 13 2 3 7 10 16 17 13 10 11 10 12 10 5 14 12 5 15 15 3 5 7 13 10 7 12 19 19 17 12 10 17
24 24 25 26 26 26 26 26 27 26 23 19 16 8 1 1 3 15 11 8 6 6 4 7 6 7 4 10 8 6 5 14 6 1 4 1 5 10 14 19 19 16 10 8 11
23 25 26 27 28 29 28 28 28 27 23 16 11 2 1 11 1 9 11 9 7 6 4 5 5 3 3 2 3 7 6 4 6 4 2 4 5 3 4 12 18 14 9 10 9
23 23 24 27 29 29 29 30 30 29 19 11 3 1 6 6 4 8 5 3 6 8 6 10 6 5 3 4 3 2 3 4 8 10 3 1 5 4 2 11 17 16 14 13 11
24 25 26 27 29 29 31 34 32 19 5 4 2 2 9 12 3 6 9 5 5 5 7 12 3 4 6 3 3 3 3 4 5 5 6 7 5 7 6 7 16 16 15 14 14
25 27 28 29 29 29 34 32 14 7 3 6 4 4 5 4 4 4 7 6 4 2 2 3 3 1 5 5 4 4 4 3 6 11 10 6 4 6 11 10 15 16 16 13 14
26 28 29 30 29 26 18 5 5 5 1 6 5 5 8 6 3 3 5 4 2 6 4 4 1 9 11 6 9 5 4 7 1 10 7 13 3 7 13 9 10 12 16 15 14
27 29 30 31 31 30 2 2 6 2 8 9 13 11 13 1 6 3 6 4 3 2 4 6 7 12 7 7 11 7 3 9 6 15 5 4 5 4 11 13 15 15 15 17 9
27 27 30 33 36 4 3 6 9 6 2 8 6 6 6 8 7 7 8 6 5 4 7 6 12 7 8 13 7 4 4 4 6 15 1 7 7 3 5 3 10 8 15 16 14
27 27 27 35 4 6 6 6 7 3 4 7 4 7 5 5 5 10 9 6 3 9 5 7 12 7 9 7 4 4 2 1 2 4 3 4 4 4 5 13 13 13 13 12 9
26 25 23 12 6 3 6 12 12 4 3 3 2 2 6 8 1 6 4 4 9 8 6 10 6 7 6 7 4 7 3 1 2 2 2 2 3 6 5 9 14 17 16 15 10
26 21 17 1 2 8 14 13 4 5 2 2 4 5 6 1 4 3 5 3 6 4 2 10 5 4 6 6 3 2 6 8 6 3 3 5 4 5 6 16 11 16 18 20 18
27 20 6 5 5 6 7 4 4 3 7 4 4 4 4 5 3 5 8 6 6 2 5 8 10 8 4 6 7 9 7 4 4 5 5 4 2 8 8 10 15 21 21 23 21
30 24 6 6 10 5 4 4 6 3 3 3 3 4 3 4 6 4 4 4 5 4 3 2 9 2 2 9 10 4 8 5 5 3 6 3 4 5 8 9 16 19 22 22 22
28 2 2 5 14 1 5 5 4 2 5 6 8 8 6 4 8 5 9 8 9 9 8 5 7 5 5 8 11 4 2 8 4 1 1 4 4 4 14 17 5 11 17 21 22
2 3 3 5 16 4 5 4 4 2 2 7 4 3 5 7 7 6 8 6 8 13 6 4 5 3 6 6 4 8 4 3 4 1 3 5 3 2 7 7 10 6 15 19 22
2 4 4 14 3 5 2 6 5 4 4 3 2 3 4 3 3 5 5 3 4 3 7 3 3 11 3 4 2 6 3 6 5 5 5 2 5 6 13 5 14 11 14 19 20
2 3 3 5 3 0 2 5 7 5 6 5 5 6 5 3 5 7 6 5 15 3 6 5 6 2 5 4 2 3 4 5 5 5 2 4 5 14 13 13 7 13 9 17 20
2 2 3 6 2 4 7 8 1 3 4 5 6 4 2 5 5 10 9 12 22 7 3 3 3 4 10 9 9 7 7 4 2 4 6 5 5 4 3 16 23 7 5 7 9
3 4 5 4 1 2 4 6 8 9 7 4 7 8 5 9 7 5 12 8 13 12 12 6 3 6 5 6 5 8 14 12 2 4 1 5 5 5 6 7 8 8 7 5 9
4 1 1 3 5 8 3 7 11 8 5 15 8 14 5 7 6 9 5 8 16 9 12 5 1 2 1 3 4 6 11 11 11 5 5 5 9 11 11 9 8 7 8 9 8
3 3 4 4 5 5 8 6 11 8 7 6 5 11 6 6 2 6 5 5 6 9 8 6 3 2 5 6 6 6 14 7 10 13 3 4 2 3 4 9 10 9 10 9 8
3 4 3 5 7 6 5 5 8 6 3 4 4 4 7 2 4 5 6 5 8 5 6 1 2 3 5 3 4 5 5 8 9 16 6 7 8 16 5 9 9 8 10 8 8
Wind_Direction
353 347 342 339 335 332 330 329 329 329 330 329 332 328 328 325 312 163 221 147 166 160 135 136 54 62 17 70 25 343 46 347 271 287 269 320 125 147 128 136 150 201 149 153 138
345 341 339 336 333 330 330 330 331 331 331 331 331 329 326 329 297 241 247 134 147 148 140 141 156 133 53 28 23 46 46 239 242 237 303 276 131 127 123 147 144 127 131 141 142
343 340 337 336 334 331 332 331 329 327 329 329 331 328 322 317 321 251 161 137 158 160 156 159 150 127 86 106 202 134 211 255 261 239 201 75 1 132 159 166 153 155 149 145 148
340 337 335 335 334 333 330 328 323 322 325 326 327 321 321 252 128 104 130 144 166 178 158 156 149 184 156 171 207 135 196 212 270 226 254 129 174 140 182 174 155 154 156 145 157
338 337 336 336 333 329 326 319 318 317 321 323 324 325 317 30 247 153 135 145 157 187 196 168 170 208 165 174 177 193 180 198 127 69 276 139 190 186 143 148 147 150 149 146 164
338 340 338 333 330 325 318 317 312 310 315 316 319 326 311 293 204 139 140 150 179 202 239 174 220 236 169 171 206 208 169 171 101 115 26 163 3 112 133 139 144 150 152 173 152
342 339 334 330 325 319 317 314 308 305 308 305 309 275 306 234 93 151 153 177 180 191 228 223 233 332 144 297 193 180 192 123 121 170 80 331 43 57 41 154 149 157 165 178 185
336 331 326 322 321 319 316 311 305 303 298 277 273 227 251 257 145 163 208 206 196 222 240 273 262 273 211 157 340 175 85 34 134 147 219 84 191 235 125 159 163 169 175 186 210
328 326 323 321 320 321 319 310 304 297 234 156 147 131 269 304 239 195 161 199 203 237 241 262 7 249 338 59 55 332 225 179 122 174 184 175 183 214 162 158 178 178 180 192 207
327 325 323 323 323 326 323 304 288 317 142 188 257 8 279 246 222 196 187 213 203 290 304 247 31 340 314 83 254 181 274 204 166 195 212 240 210 170 158 163 187 184 184 196 200
327 325 323 324 324 328 339 353 10 6 100 213 211 254 287 304 81 172 207 163 96 57 192 294 36 239 258 236 243 248 208 208 218 176 163 223 164 185 159 159 176 198 191 196 195
326 324 326 326 322 321 291 23 231 246 304 245 242 244 256 28 311 235 104 141 101 262 350 1 266 260 244 256 266 261 153 277 238 163 158 228 258 150 166 191 185 189 200 196 181
323 327 329 326 318 323 225 242 280 359 342 292 216 211 224 141 221 235 130 154 151 237 252 186 247 303 296 301 291 221 204 250 153 176 295 141 310 272 203 172 185 197 199 198 180
322 330 333 329 344 329 283 291 324 182 48 279 222 257 175 165 281 204 180 139 149 211 238 248 270 255 287 257 191 350 171 270 41 120 185 180 260 247 226 213 200 195 198 196 166
320 327 329 326 299 307 285 337 328 56 71 171 211 166 146 154 204 346 142 85 188 222 110 247 290 317 307 261 352 265 343 39 80 155 105 307 89 269 178 235 212 198 196 194 176
318 322 331 111 214 245 317 307 42 45 301 189 149 174 94 270 278 325 165 111 199 217 215 241 260 218 234 307 254 266 41 28 35 62 54 227 137 281 196 219 188 191 189 188 199
316 310 291 292 232 9 324 34 52 97 324 7 246 157 156 221 282 178 177 158 182 111 294 321 285 287 191 311 336 68 57 359 344 3 219 220 62 234 258 211 181 190 188 190 196
315 307 239 212 251 317 27 57 62 267 342 302 351 112 153 176 237 188 118 203 262 131 110 231 321 180 202 200 191 185 137 152 230 229 267 61 232 263 236 245 193 181 185 184 190
315 132 222 243 208 116 64 52 219 10 329 8 353 56 349 326 206 138 194 209 209 168 178 179 264 276 214 245 137 233 183 192 159 154 83 252 323 23 27 15 139 161 171 183 186
359 348 268 102 144 79 70 246 266 13 51 23 59 59 355 312 17 165 174 228 234 188 166 225 304 210 297 42 3 150 167 49 9 44 5 334 329 245 21 14 354 151 173 183 184
6 31 269 115 90 52 114 249 277 327 20 89 284 318 353 298 336 34 311 297 338 197 142 95 79 294 24 32 281 336 331 63 119 136 160 213 261 211 123 171 265 263 168 178 187
16 48 258 111 47 166 244 215 289 355 9 9 40 42 359 321 6 28 337 349 351 112 127 229 152 354 216 261 290 250 251 148 131 250 200 162 270 188 177 199 251 269 185 178 185
58 273 339 84 11 330 302 300 273 25 357 21 23 39 335 2 16 47 354 352 357 355 129 343 20 24 347 358 351 25 340 270 102 93 181 141 260 197 157 149 259 203 173 162 159
63 29 337 30 186 301 309 317 352 347 22 13 22 4 4 19 36 44 5 345 349 20 1 28 99 140 181 223 241 8 3 348 47 71 198 213 127 122 203 137 104 105 112 118 135
28 335 160 306 334 332 321 14 20 359 34 24 28 2 28 15 20 0 14 340 337 11 360 60 87 62 170 242 69 74 17 21 43 279 135 248 158 194 167 142 119 102 80 71 67
62 34 344 303 302 1 7 349 37 350 29 358 41 343 38 56 62 324 352 32 268 325 357 352 322 104 336 348 54 67 33 25 22 337 331 104 67 310 172 110 98 92 81 76 71
322 329 103 288 340 31 349 14 23 9 332 25 343 4 341 303 292 270 241 228 230 244 293 142 53 30 302 326 39 35 355 52 67 14 352 14 342 335 340 92 70 79 88 84 59